www.pogodaiklimat.ru

Погода и климат >> Архив погоды >> Германия >> Leuchtturm Alte Weser


ПОГОДА в Leuchtturm Alte Weser

  • Прогноз погоды в Leuchtturm Alte Weser
  • Монитор погоды в Leuchtturm Alte Weser
  • Климат города

АРХИВ ПОГОДЫ в Leuchtturm Alte Weser

Время (UTC), дата Ветер
(напр.,м/с)
 
Видим.   Явления Облачность Т
(С)
Тd
(С)
f
(%)
Тe
(С)
Тes
(С)
Комфортность P
(гПа)
Po
(гПа)
Тmin
(С)
Tmax
(С)
R
(мм)
R24
(мм)
S
(см)
20 18.04 СВ 9 н/о н/о +5.2 -3.1 55 -0 -0 1033.1 1029.2
19 18.04 СВ 10 н/о н/о +5.4 -4.1 50 -0 -0 1032.5 1028.6
21 18.04 В 8
{13}
н/о н/о +4.7 -3.7 54 -1 -1 1033.6 1029.7
22 18.04 СВ 7 н/о н/о +4.7 -3.3 56 -0 -0 1033.9 1030.0
23 18.04 СВ 6 н/о н/о +4.6 -2.7 59 -0 -0 1034.4 1030.5
00 19.04 СВ 7
{13}
н/о н/о +4.6 -3.6 55 -1 -1 1034.5 1030.5
02 19.04 СВ 7 н/о н/о +4.2 -5.1 51 -1 -1 1034.7 1030.7
01 19.04 СВ 7 н/о н/о +4.3 -4.3 54 -1 -1 1034.6 1030.6
03 19.04 СВ 7 н/о н/о +4.0 -5.0 52 -1 -1 1034.9 1031.0
04 19.04 СВ 6 н/о н/о +3.9 -4.7 53 -1 -1 1035.1 1031.2
05 19.04 СВ 5 н/о н/о +3.9 -4.8 53 -1 -1 1035.4 1031.4
06 19.04 СВ 5 н/о н/о +4.1 -4.1 55 -0 -0 1035.8 1031.8 +3.8 +6.1
08 19.04 СВ 5 н/о н/о +4.4 -4.1 54 0 0 1036.7 1032.8
07 19.04 СВ 5 н/о н/о +4.2 -4.4 54 -0 -0 1036.4 1032.4
09 19.04 СВ 5 н/о н/о +4.6 -3.5 56 0 0 1037.2 1033.3
10 19.04 СВ 5 н/о н/о +4.3 -3.4 57 -0 -0 1037.5 1033.5
13 19.04 С 3 н/о н/о +5.0 -2.7 57 +2 +2 1037.3 1033.4
14 19.04 С 2 н/о н/о +5.2 -3.5 53 +3 +3 1036.9 1033.0
15 19.04 С 4 н/о н/о +5.6 -5.1 46 +2 +2 1036.8 1032.9
16 19.04 С 4 н/о н/о +5.9 -4.8 46 +3 +3 1036.9 1033.0
17 19.04 С 5 н/о н/о +5.9 -1.5 59 +2 +2 1036.5 1032.6
18 19.04 С 5 н/о н/о +5.8 -2.1 57 +2 +2 1036.6 1032.7 +3.9 +6.1
19 19.04 С 5 н/о н/о +5.8 -1.5 59 +2 +2 1037.0 1033.1
20 19.04 С 4 н/о н/о +5.8 -2.0 57 +2 +2 1037.2 1033.3
21 19.04 СВ 3 н/о н/о +5.8 -2.1 57 +3 +3 1037.0 1033.1
22 19.04 СВ 3 н/о н/о +5.8 -2.0 57 +3 +3 1037.1 1033.2
23 19.04 СВ 2 н/о н/о +5.9 -1.7 58 +4 +4 1037.3 1033.4
00 20.04 ЮВ 1 н/о н/о +5.8 -2.6 55 +5 +5 1037.0 1033.1
01 20.04 Ю 3 н/о н/о +5.9 -2.7 54 +3 +3 1036.6 1032.7
02 20.04 ЮЗ 4 н/о н/о +5.9 -2.3 56 +3 +3 1036.3 1032.4
03 20.04 ЮЗ 4 н/о н/о +5.7 -1.2 61 +2 +2 1036.2 1032.3
04 20.04 ЮЗ 4 н/о н/о +5.6 -1.9 58 +2 +2 1036.0 1032.1
05 20.04 ЮЗ 5 н/о н/о +5.1 -0.2 69 +1 +1 1035.9 1032.0
06 20.04 ЮЗ 6 н/о н/о +4.7 -0.3 70 -0 -0 1035.9 1032.0 +4.7 +6.5
07 20.04 ЮЗ 7 н/о н/о +4.5 -1.9 63 -1 -1 1035.7 1031.7
08 20.04 ЮЗ 6 н/о н/о +4.9 -0.4 69 0 0 1035.8 1031.9
09 20.04 З 7 н/о н/о +5.4 -1.8 60 +1 +1 1035.6 1031.7
10 20.04 З 6 н/о н/о +5.6 -1.6 60 +1 +1 1035.5 1031.6
11 20.04 З 6 н/о н/о +6.1 -0.5 63 +2 +2 1035.1 1031.1
12 20.04 З 7 н/о н/о +6.7 +0.7 66 +2 +2 1034.5 1030.6
13 20.04 З 7 н/о н/о +7.1 +1.3 67 +3 +3 1034.0 1030.1
14 20.04 З 8 н/о н/о +7.6 +0.8 62 +3 +3 1033.0 1029.2
15 20.04 З 8 н/о н/о +8.1 +2.6 68 +4 +4 1032.4 1028.5
16 20.04 З 9 н/о н/о +8.2 +4.0 75 +3 +3 1031.9 1028.1
17 20.04 З 9 н/о н/о +8.3 +3.8 73 +4 +4 1031.6 1027.7
18 20.04 З 9 н/о н/о +8.4 +5.2 80 +4 +4 1031.1 1027.2 +4.5 +8.4
19 20.04 З 9 н/о н/о +8.5 +6.1 85 +4 +4 1031.0 1027.1
20 20.04 З 10 н/о н/о +8.6 +6.1 84 +4 +4 1030.7 1026.9
21 20.04 З 10 н/о н/о +8.8 +5.9 82 +4 +4 1030.1 1026.3
22 20.04 З 10
{13}
н/о н/о +8.7 +6.1 84 +4 +4 1029.7 1025.9
23 20.04 ЮЗ 9 н/о н/о +8.5 +6.5 87 +4 +4 1029.3 1025.4
00 21.04 З 11
{13}
н/о н/о +8.0 +7.4 96 +2 +2 1028.6 1024.7
01 21.04 З 11
{13}
н/о н/о +8.2 +8.0 99 +3 +3 1027.8 1024.0
02 21.04 З 11
{13}
н/о н/о +8.6 +8.5 99 +3 +3 1027.3 1023.5
03 21.04 З 11
{13}
н/о н/о +8.4 +8.4 100 +3 +3 1026.8 1022.9
04 21.04 З 10
{13}
н/о н/о +8.3 +8.2 99 +3 +3 1026.3 1022.4
05 21.04 З 11
{13}
н/о н/о +7.8 +7.7 99 +2 +2 1025.8 1022.0
06 21.04 З 11
{13}
н/о н/о +8.1 +7.9 99 +2 +2 1025.7 1021.9 +7.7 +8.8
07 21.04 ЮЗ 11
{13}
н/о н/о +8.4 +8.0 97 +3 +3 1025.4 1021.6
08 21.04 ЮЗ 11 н/о н/о +8.9 +8.0 94 +4 +4 1025.0 1021.2
09 21.04 ЮЗ 11
{13}
н/о н/о +9.8 +8.4 91 +5 +5 1024.7 1020.9
10 21.04 З 9 н/о н/о +10.3 +8.4 88 +6 +6 1024.4 1020.6
11 21.04 З 14
{17}
н/о н/о +9.9 +8.4 90 +5 +5 1023.5 1019.7
12 21.04 З 14
{17}
н/о н/о +9.6 +8.1 90 +4 +4 1023.0 1019.2
13 21.04 З 15
{16}
н/о н/о +9.3 +7.8 90 +4 +4 1022.7 1018.9
14 21.04 З 14
{17}
н/о н/о +9.1 +7.9 92 +3 +3 1022.2 1018.4
15 21.04 З 15
{17}
н/о н/о +9.2 +7.3 88 +3 +3 1021.3 1017.5
16 21.04 З 16
{18}
н/о н/о +9.0 +7.5 90 +3 +3 1020.7 1016.8
17 21.04 З 15
{18}
н/о н/о +9.0 +7.8 92 +3 +3 1020.4 1016.6
18 21.04 З 15
{18}
н/о н/о +9.0 +7.9 93 +3 +3 1020.1 1016.3 +7.7 +10.4
19 21.04 СЗ 15
{19}
н/о н/о +8.1 +7.3 95 +2 +2 1020.7 1016.8
20 21.04 СЗ 14
{16}
н/о н/о +8.0 +5.8 86 +2 +2 1021.2 1017.4
21 21.04 СЗ 13
{19}
н/о н/о +7.7 +4.8 82 +2 +2 1021.3 1017.5
22 21.04 СЗ 14
{17}
н/о н/о +7.6 +3.9 77 +1 +1 1021.4 1017.6
23 21.04 СЗ 15
{19}
н/о н/о +7.6 +3.3 74 +1 +1 1021.3 1017.4
00 22.04 СЗ 15
{19}
н/о н/о +7.2 +1.1 65 +1 +1 1021.4 1017.5
01 22.04 СЗ 12
{16}
н/о н/о +7.2 +2.4 72 +1 +1 1021.1 1017.3
02 22.04 СЗ 13
{16}
н/о н/о +6.8 +1.5 69 +1 +1 1021.1 1017.2
03 22.04 СЗ 14
{19}
н/о н/о +6.8 +1.2 67 +1 +1 1020.8 1016.9
04 22.04 СЗ 15
{19}
н/о н/о +5.6 +2.3 79 -2 -2 1020.6 1016.8
05 22.04 СЗ 14
{17}
н/о н/о +6.5 +0.3 65 0 0 1020.3 1016.5
06 22.04 СЗ 18
{22}
н/о н/о +5.6 +1.5 75 -2 -2 1020.1 1016.2 +5.5 +9.0
07 22.04 СЗ 16
{19}
н/о н/о +6.7 -0.3 61 0 0 1020.4 1016.5
08 22.04 СЗ 16
{20}
н/о н/о +6.5 +0.5 65 -0 -0 1020.8 1016.9
09 22.04 СЗ 15
{23}
н/о н/о +6.5 +1.8 72 -0 -0 1021.2 1017.4
10 22.04 СЗ 15
{19}
н/о н/о +6.6 +1.0 67 0 0 1021.1 1017.2
11 22.04 СЗ 15
{19}
н/о н/о +6.8 +2.1 72 0 0 1021.4 1017.5
12 22.04 СЗ 14
{23}
н/о н/о +6.5 +2.7 77 -0 -0 1021.2 1017.3
13 22.04 СЗ 15
{19}
н/о н/о +7.1 +1.8 69 +1 +1 1020.9 1017.1
14 22.04 СЗ 15
{18}
н/о н/о +6.8 +2.1 72 0 0 1020.7 1016.9
15 22.04 СЗ 15
{22}
н/о н/о +7.0 +2.6 74 +1 +1 1020.4 1016.6
16 22.04 СЗ 16
{18}
н/о н/о +7.2 +2.8 74 +1 +1 1020.2 1016.4
17 22.04 СЗ 16
{21}
н/о н/о +6.9 +3.7 80 0 0 1020.1 1016.3
18 22.04 СЗ 16
{22}
н/о н/о +7.1 +3.1 76 0 0 1019.9 1016.1 +4.6 +7.4
19 22.04 СЗ 16
{19}
н/о н/о +7.0 +3.2 77 0 0 1020.0 1016.2
20 22.04 СЗ 16
{19}
н/о н/о +5.6 +2.6 81 -2 -2 1020.3 1016.5
21 22.04 СЗ 14
{20}
н/о н/о +6.7 +3.1 78 0 0 1020.4 1016.6
22 22.04 СЗ 13
{17}
н/о н/о +6.8 +2.9 76 +1 +1 1020.4 1016.6
23 22.04 СЗ 12
{16}
н/о н/о +6.4 +3.3 81 0 0 1020.4 1016.6
00 23.04 СЗ 13
{20}
н/о н/о +5.9 +2.3 78 -1 -1 1020.6 1016.7
01 23.04 СЗ 12
{16}
н/о н/о +6.2 +2.1 75 -0 -0 1020.3 1016.4
02 23.04 СЗ 13
{16}
н/о н/о +6.4 +1.0 68 0 0 1020.0 1016.2
03 23.04 СЗ 13
{18}
н/о н/о +6.5 +2.5 76 0 0 1019.8 1016.0
04 23.04 СЗ 15
{19}
н/о н/о +4.8 +0.2 72 -3 -3 1020.0 1016.1
05 23.04 СЗ 13
{18}
н/о н/о +6.2 -1.2 59 0 0 1020.1 1016.2
06 23.04 СЗ 14
{19}
н/о н/о +6.5 -1.5 57 0 0 1020.2 1016.4 +4.8 +7.2
07 23.04 СЗ 13
{19}
н/о н/о +5.8 +0.2 67 -1 -1 1020.8 1017.0
08 23.04 СЗ 13
{16}
н/о н/о +6.2 -0.9 60 0 0 1021.1 1017.2
09 23.04 СЗ 14
{19}
н/о н/о +4.9 +1.2 77 -2 -2 1021.6 1017.7
10 23.04 СЗ 13
{19}
н/о н/о +6.2 -0.7 61 -0 -0 1021.6 1017.8
11 23.04 СЗ 13
{17}
н/о н/о +5.3 +1.1 74 -2 -2 1021.8 1018.0
12 23.04 СЗ 12
{19}
н/о н/о +6.2 +0.9 69 0 0 1021.6 1017.8
13 23.04 СЗ 13
{16}
н/о н/о +6.2 +1.3 71 -0 -0 1021.6 1017.7
14 23.04 СЗ 13
{18}
н/о н/о +6.1 +0.9 69 -0 -0 1021.9 1018.1
15 23.04 СЗ 11
{18}
н/о н/о +6.3 +1.5 71 0 0 1021.9 1018.0
16 23.04 СЗ 11
{15}
н/о н/о +6.4 +1.3 70 +1 +1 1021.7 1017.8
17 23.04 СЗ 11
{16}
н/о н/о +6.6 +2.0 72 +1 +1 1021.7 1017.8
18 23.04 СЗ 11
{18}
н/о н/о +6.8 +1.7 70 +1 +1 1021.5 1017.6 +4.0 +6.9
19 23.04 СЗ 11
{13}
н/о н/о +6.9 +2.5 74 +1 +1 1021.2 1017.4
20 23.04 З 9
{13}
н/о н/о +7.0 +2.4 73 +2 +2 1021.3 1017.4
21 23.04 З 9
{14}
н/о н/о +7.1 +2.3 71 +2 +2 1020.6 1016.7
22 23.04 З 10 н/о н/о +7.3 +2.5 72 +2 +2 1019.8 1016.0
23 23.04 ЮЗ 9 н/о н/о +6.9 +3.4 78 +2 +2 1019.3 1015.5
00 24.04 ЮЗ 10
{14}
н/о н/о +6.6 +3.3 79 +1 +1 1018.1 1014.3
01 24.04 ЮЗ 11
{13}
н/о н/о +6.1 +3.2 82 -0 -0 1017.2 1013.4
02 24.04 ЮЗ 11
{13}
н/о н/о +5.9 +3.1 82 -0 -0 1015.8 1011.9
03 24.04 ЮЗ 12
{15}
н/о н/о +5.8 +2.7 80 -1 -1 1014.3 1010.5
04 24.04 ЮЗ 15
{18}
н/о н/о +6.3 +2.8 78 -1 -1 1012.7 1008.9
05 24.04 ЮЗ 14
{18}
н/о н/о +6.5 +2.8 77 -0 -0 1012.1 1008.3
06 24.04 ЮЗ 16
{18}
н/о н/о +6.7 +2.7 76 -0 -0 1011.1 1007.3 +5.6 +7.5
07 24.04 ЮЗ 15
{19}
н/о н/о +7.0 +3.3 77 0 0 1010.6 1006.8
08 24.04 ЮЗ 15
{17}
н/о н/о +7.8 +4.4 79 +2 +2 1009.7 1005.9
09 24.04 ЮЗ 16
{19}
н/о н/о +8.9 +5.3 78 +3 +3 1009.1 1005.4
10 24.04 З 14
{18}
н/о н/о +9.0 +6.8 86 +3 +3 1009.2 1005.4
11 24.04 З 15
{19}
н/о н/о +8.9 +6.6 85 +3 +3 1008.7 1004.9
12 24.04 З 15
{19}
н/о н/о +8.9 +6.8 87 +3 +3 1008.5 1004.8
13 24.04 З 14
{17}
н/о н/о +8.8 +6.8 87 +3 +3 1008.3 1004.6
14 24.04 З 13
{16}
н/о н/о +7.9 +4.3 78 +2 +2 1008.4 1004.6
15 24.04 СЗ 12
{18}
н/о н/о +7.2 +4.6 84 +1 +1 1008.5 1004.7
16 24.04 СЗ 8
{13}
н/о н/о +6.6 +3.2 79 +1 +1 1008.5 1004.7
17 24.04 СЗ 6 н/о н/о +6.7 +1.5 69 +2 +2 1008.0 1004.2
18 24.04 СЗ 5
{18}
н/о н/о +6.7 +1.1 67 +3 +3 1007.8 1004.0 +6.3 +9.0
19 24.04 СЗ 4 н/о н/о +6.5 +1.0 68 +3 +3 1007.3 1003.5
20 24.04 С 2 н/о н/о +6.4 +1.0 68 +4 +4 1006.8 1003.0
21 24.04 С 3 н/о н/о +6.1 +0.8 69 +3 +3 1006.4 1002.6
22 24.04 С 4 н/о н/о +5.6 +0.7 71 +2 +2 1005.5 1001.7
23 24.04 В 2 н/о н/о +5.8 +1.0 71 +4 +4 1004.8 1001.0
00 25.04 Ю 4 н/о н/о +5.0 +2.5 84 +1 +1 1004.1 1000.3
01 25.04 З 1 н/о н/о +4.9 +2.8 86 +4 +4 1003.3 999.5
02 25.04 Ю 4 н/о н/о +5.3 +2.6 83 +1 +1 1002.5 998.7
03 25.04 Ю 6 н/о н/о +5.2 +3.6 89 0 0 1001.3 997.5
04 25.04 ЮЗ 8
{15}
н/о н/о +4.1 +2.8 91 -2 -2 1000.7 996.9
05 25.04 З 8 н/о н/о +5.1 +2.6 84 -1 -1 1000.4 996.6
06 25.04 З 10
{15}
н/о н/о +4.9 +2.4 84 -2 -2 1000.4 996.6 +3.6 +6.8
07 25.04 З 12
{15}
н/о н/о +4.2 +0.6 77 -3 -3 1000.6 996.8
08 25.04 СЗ 13
{16}
н/о н/о +3.6 +1.9 89 -4 -4 1001.2 997.4
09 25.04 С 11
{17}
н/о н/о +3.3 +0.9 84 -4 -4 1002.7 998.8
10 25.04 С 9 н/о н/о +3.9 +0.7 80 -3 -3 1003.8 1000.0
11 25.04 СЗ 8 н/о н/о +4.3 +0.5 76 -2 -2 1004.8 1001.0
12 25.04 СЗ 7
{17}
н/о н/о +4.0 +0.6 78 -2 -2 1005.5 1001.6
13 25.04 З 5 н/о н/о +4.8 -0.2 70 0 0 1005.8 1002.0
14 25.04 З 7
{16}
н/о н/о +5.0 +0.2 71 -0 -0 1006.0 1002.2
15 25.04 З 12
{16}
н/о н/о +6.1 -1.0 60 0 0 1006.1 1002.3
17 25.04 З 11
{14}
н/о н/о +6.6 -1.6 56 +1 +1 1006.0 1002.2

 

Местоположение метеостанции Leuchtturm Alte Weser (Германия): широта 53.87 долгота 8.13 высота над уровнем моря 32 м.

В архиве по умолчанию представлена погода в Leuchtturm Alte Weser за последнюю неделю. Архивные данные за месяц целиком и за предыдущие месяцы, начиная с января 2011 года, Вы можете получить, выбрав интересующий диапазон дат из раскрывающегося списка и нажав кнопку "Ввод!".

Внимание! Время в таблицах - всемирное. Для получения местного времени необходимо прибавить поправку, которая в Leuchtturm Alte Weser равна 1 ч.

Смотрите также архив погоды в соседних городах и на ближайших метеорологических станциях:

Погода в Nordholz (Германия) (37 км)
Погода в Cuxhaven (Германия) (37 км)
Погода в Helgoland (Германия) (38 км)
Погода в Wittmundhaven (Германия) (47 км)
Погода в Bremerhaven (Германия) (48 км)
Погода в Ufs Deutsche Bucht (Германия) (57 км)
Погода в St Peter-Ording (Германия) (60 км)
Погода в Elpersbuettel (Германия) (62 км)
Погода в Norderney Island (Германия) (67 км)
Погода в Bremervoerde (Германия) (80 км)

Пояснения к столбцам:

Ветер - указаны скорость ветра в м/с - средняя за 10 мин, порывы в срок и между сроками (в фигурных скобках) и направление, откуда дует ветер: С - северный, СВ - северо-восточный, В - восточный, ЮВ - юго-восточный, Ю - южный, ЮЗ - юго-западный, З - западный, СЗ - северо-западный.
Видимость - горизонтальная дальность видимости в метрах или километрах. При видимости от 1 до 10 км при отсутствии осадков обычно наблюдается дымка, при ухудшении видимости до 1 км и менее - туман. В сухую погоду видимость может ухудшаться дымом, пылью или мглою.
Явления - указаны атмосферные явления, наблюдавшиеся в срок или в последний час перед сроком; фигурными скобками обозначены явления, наблюдавшиеся между сроками (за 1-3 часа до срока); квадратными скобками обозначены град или гололедные отложения с указанием их диаметра в мм.
Облачность - указаны через наклонную черту общая и нижняя облачность в баллах и высота нижней границы облаков в метрах; квадратными скобками обозначены формы облаков: Ci - перистые, Cs - перисто-слоистые, Cc - перисто-кучевые, Ac - высококучевые, As - высокослоистые, Sc - слоисто-кучевые, Ns - слоисто-дождевые, Cu - кучевые, Cb - кучево-дождевые. Подробнее классификацию облаков см. в Атласе облаков (PDF).
T - Температура воздуха - температура, измеренная на высоте 2 м над землей.
Td - Температура точки росы - температура, при понижении до которой содержащийся в воздухе водяной пар достигнет насыщения.
f - Относительная влажность воздуха - влажноcть воздуха, измеренная на высоте 2 м над землей.
Te - Эффективная температура - температура, которую ощущает одетый по сезону человек в тени. Характеристика душности погоды. При расчете учитывается влияние влажности воздуха и скорости ветра на теплоощущения человека.
Tes - Эффективная температура на солнце - температура, которую ощущает человек, с поправкой на солнечный нагрев. Характеристика знойности погоды. Зависит от высоты солнца над горизонтом, облачности и скорости ветра. Ночью, в пасмурную погоду, а также при ветре 12 м/с и более поправка равна нулю.
P - Атмосферное давление - приведенное к уровню моря атмосферное давление.
Po - Атмосферное давление - измеренное на уровне метеостанции атмосферное давление.
Tmin - Минимальная температура - минимум температуры воздуха на высоте 2 м над землей.
Tmax - Максимальная температура - максимум температуры воздуха на высоте 2 м над землей.
R - Количество осадков - Количество выпавших осадков за период времени, мм. При наведении курсора мыши на число - период времени, за который выпало указанное количество осадков.
R24 - Количество осадков - Количество выпавших осадков за 24 часа, мм.
S - Снежный покров - Высота снежного покрова, см. При наведении курсора мыши на число - состояние снежного покрова и степень покрытия местности в баллах.